Weather History for Wichita, KS

Change the Weather History Date:

Wednesday, November 14, 2012

  Actual Average Record
Temperature  
Mean Temperature 46 °F 46 °F  
Max Temperature 58 °F 57 °F 78 °F (1897)
Min Temperature 33 °F 35 °F 7 °F (1940)
Degree Days  
Heating Degree Days 19 19  
Month to date heating degree days 176 220  
Since 1 July heating degree days 436 506  
Cooling Degree Days 0 0  
Month to date cooling degree days 11 0  
Year to date cooling degree days 2312 1684  
Moisture  
Dew Point 28 °F    
Average Humidity 53    
Maximum Humidity 75    
Minimum Humidity 30    
Precipitation  
Precipitation 0.00 in 0.05 in 1.91 in (1931)
Month to date precipitation 0.55 0.78  
Year to date precipitation 24.67 30.79  
Snow  
Snow 0.00 in 0.00 in 0.30 in (1929)
Month to date snowfall T 0.2  
Since 1 July snowfall T 0.3  
Since 1 September snowfall T 0.3  
Snow Depth 0.00 in    
Sea Level Pressure  
Sea Level Pressure 30.30 in    
Wind  
Wind Speed 11 mph (SSE)    
Max Wind Speed 21 mph    
Max Gust Speed 25 mph    
Visibility 10 miles    
Events      
T = Trace of Precipitation, MM = Missing Value Source: NWS Daily Summary

Daily Weather History Graph

Daily Weather History Graph

Search for Another Location

Airport:

Trip Planner

Search our weather history database for the weather conditions in past years. The results will help you decide how hot, cold, wet, or windy it might be!

Date:

Astronomy

Nov. 14, 2012 Rise Set
Actual Time 7:09 AM CST 5:18 PM CST
Civil Twilight 6:41 AM CST 5:46 PM CST
Nautical Twilight 6:09 AM CST 6:18 PM CST
Astronomical Twilight 5:38 AM CST 6:49 PM CST
Moon 7:58 AM CST (11/14) 6:10 PM CST (11/14)
Length of Visible Light 11h 05m
Length of Day
10h 09m
New Moon, 1% of the Moon is Illuminated
Nov 14
New Moon
Nov 20
First Quarter
Nov 28
Full
Dec 6
Last Quarter
Dec 13
New

Hourly Weather History & Observations

Time (CST) Temp. Windchill Dew Point Humidity Pressure Visibility Wind Dir Wind Speed Gust Speed Precip Events Conditions
12:53 AM 37.9 °F 31.5 °F 26.1 °F 62% 30.34 in 10.0 mi South 9.2 mph - N/A   Partly Cloudy
1:53 AM 37.0 °F 31.6 °F 26.1 °F 65% 30.34 in 10.0 mi SSE 6.9 mph - N/A   Partly Cloudy
2:53 AM 35.1 °F 29.3 °F 25.0 °F 67% 30.35 in 10.0 mi SSE 6.9 mph - N/A   Clear
3:53 AM 34.0 °F 27.2 °F 25.0 °F 70% 30.35 in 10.0 mi SE 8.1 mph - N/A   Clear
4:53 AM 34.0 °F 27.2 °F 25.0 °F 70% 30.34 in 10.0 mi SSE 8.1 mph - N/A   Clear
5:53 AM 35.1 °F 27.9 °F 26.1 °F 70% 30.35 in 10.0 mi SSE 9.2 mph - N/A   Clear
6:53 AM 34.0 °F 26.0 °F 26.1 °F 73% 30.34 in 10.0 mi SSE 10.4 mph - N/A   Clear
7:53 AM 37.0 °F 29.8 °F 26.1 °F 65% 30.35 in 10.0 mi SSE 10.4 mph - N/A   Clear
8:53 AM 41.0 °F 35.2 °F 28.0 °F 60% 30.36 in 10.0 mi South 9.2 mph - N/A   Clear
9:53 AM 48.0 °F - 28.0 °F 46% 30.36 in 10.0 mi South 15.0 mph - N/A   Clear
10:53 AM 51.1 °F - 27.0 °F 39% 30.35 in 10.0 mi South 17.3 mph - N/A   Partly Cloudy
11:53 AM 53.1 °F - 27.0 °F 37% 30.32 in 10.0 mi South 16.1 mph - N/A   Partly Cloudy
12:53 PM 55.9 °F - 27.0 °F 33% 30.30 in 10.0 mi South 18.4 mph - N/A   Partly Cloudy
1:53 PM 57.0 °F - 27.0 °F 32% 30.28 in 10.0 mi South 16.1 mph 25.3 mph N/A   Scattered Clouds
2:53 PM 57.0 °F - 27.0 °F 32% 30.26 in 10.0 mi South 17.3 mph - N/A   Scattered Clouds
3:53 PM 57.0 °F - 28.0 °F 33% 30.25 in 10.0 mi South 16.1 mph - N/A   Scattered Clouds
4:53 PM 54.0 °F - 28.9 °F 38% 30.24 in 10.0 mi South 11.5 mph - N/A   Scattered Clouds
5:53 PM 48.0 °F - 30.0 °F 50% 30.23 in 10.0 mi SSE 8.1 mph - N/A   Mostly Cloudy
6:53 PM 46.9 °F - 30.0 °F 52% 30.24 in 10.0 mi SE 8.1 mph - N/A   Mostly Cloudy
7:53 PM 46.9 °F - 30.0 °F 52% 30.24 in 10.0 mi SSE 9.2 mph - N/A   Mostly Cloudy
8:53 PM 45.0 °F 40.1 °F 30.0 °F 56% 30.23 in 10.0 mi SSE 9.2 mph - N/A   Mostly Cloudy
9:53 PM 44.1 °F 37.7 °F 30.9 °F 60% 30.24 in 10.0 mi SSE 12.7 mph - N/A   Scattered Clouds
10:53 PM 41.0 °F 35.2 °F 30.9 °F 67% 30.24 in 10.0 mi SSE 9.2 mph - N/A   Partly Cloudy
11:53 PM 41.0 °F 34.7 °F 30.0 °F 65% 30.23 in 10.0 mi SSE 10.4 mph - N/A   Partly Cloudy